Theta_e
324 325 325 325 325 324 322 322 320 319 319 318 319 319 320 321 321 320 319 319 319 319 319 320 321 321 321 322 320 317 315 315 315 315 316 317 317 318 319 321 322 324
325 325 324 324 325 323 322 322 321 319 319 319 319 319 319 320 320 319 319 319 319 319 318 319 320 319 319 320 320 317 315 315 314 314 315 316 317 318 320 322 323 324
325 324 323 324 325 323 322 321 320 320 319 319 319 318 318 319 319 319 319 319 319 318 318 317 318 317 316 318 319 317 315 315 314 314 314 315 316 317 318 320 321 322
324 323 323 325 325 323 322 320 320 320 319 319 319 318 318 318 319 318 318 318 318 318 318 316 315 314 314 316 317 316 315 315 314 313 313 314 315 315 315 316 318 319
324 324 324 325 324 323 322 321 320 320 319 318 318 317 317 317 318 318 317 317 318 318 316 314 313 313 314 315 316 315 315 314 313 312 313 313 314 314 313 314 316 317
324 324 324 324 324 323 322 321 321 320 318 317 316 316 316 315 316 317 317 316 316 316 314 313 314 314 314 314 315 315 314 313 313 314 313 312 313 313 313 313 313 314
324 324 323 323 323 323 322 321 321 320 317 316 316 317 316 315 314 316 316 315 315 314 314 314 314 314 314 313 314 315 314 314 314 315 315 314 313 313 313 313 313 313
324 323 323 323 323 322 322 321 320 319 317 317 318 317 316 315 314 315 316 315 315 314 314 314 313 314 314 314 313 314 314 314 315 314 314 315 314 314 313 313 313 313
324 324 323 323 323 322 322 321 320 318 317 318 318 317 315 314 314 315 316 316 315 315 314 314 315 315 315 315 314 314 315 315 315 314 313 314 314 313 313 313 313 314
324 323 323 323 323 323 322 321 319 318 318 318 318 316 314 315 316 315 315 316 316 316 316 316 316 316 315 315 315 315 316 316 316 315 314 314 314 313 313 313 313 314
324 323 323 323 322 322 321 320 319 318 318 318 318 316 316 316 317 315 316 317 317 316 316 316 316 317 316 316 317 317 317 316 316 315 315 315 315 315 315 315 314 314
324 323 322 322 322 321 321 319 319 319 318 319 317 316 317 316 316 316 317 318 318 316 317 317 317 317 317 317 318 319 319 317 315 316 316 316 316 315 316 316 317 316
323 322 321 320 319 319 318 318 319 320 319 319 318 316 317 317 317 317 318 319 318 317 318 319 319 319 320 318 318 320 320 318 316 317 318 318 318 317 317 318 318 318
322 321 321 320 317 316 317 318 319 320 319 318 318 317 317 318 319 319 319 320 319 318 319 320 320 321 321 319 319 320 320 319 318 319 320 320 320 319 318 319 319 320
320 320 320 320 316 315 320 321 319 320 319 319 319 318 317 318 319 319 320 320 320 319 320 321 321 321 322 321 321 321 321 321 321 321 321 321 321 320 320 320 320 320
320 320 320 319 317 318 321 321 319 320 319 319 319 319 319 319 320 320 320 320 320 320 320 321 321 321 322 322 322 322 322 323 322 322 322 321 321 321 321 321 321 320
320 321 322 321 321 321 322 321 320 319 317 316 317 318 319 319 319 320 320 320 320 321 321 321 321 321 322 323 323 323 323 323 323 323 323 322 321 320 320 320 320 320
320 320 321 321 320 320 320 320 317 315 314 316 318 319 319 318 318 319 320 320 321 321 321 321 321 321 321 322 322 323 322 323 322 322 322 321 321 320 319 319 319 320
322 321 320 321 321 321 321 320 317 315 316 319 320 319 319 319 319 319 320 320 321 321 321 321 320 320 320 319 320 321 321 320 321 321 321 320 320 320 319 318 319 320
321 321 321 320 321 321 322 322 321 319 320 320 320 320 319 319 319 319 320 320 320 320 320 320 320 319 319 319 319 319 319 319 319 320 321 320 320 319 319 318 319 320
320 321 321 320 319 320 320 321 320 320 320 320 320 320 320 320 320 320 320 320 320 320 320 320 320 320 320 319 319 319 318 318 319 320 321 320 319 318 318 319 319 320
315 317 318 319 319 319 320 320 319 319 320 320 320 320 320 320 320 321 321 320 319 319 319 319 320 320 320 319 319 318 318 317 318 320 320 320 319 318 317 318 320 320
307 309 311 312 314 315 317 319 320 320 320 319 320 320 320 319 319 319 320 319 319 319 319 319 319 319 320 319 318 317 317 318 319 319 320 319 319 318 317 318 320 321
303 304 304 305 305 306 308 312 316 319 320 320 320 320 320 320 320 320 320 320 320 319 319 319 319 319 318 318 318 318 318 319 319 319 319 318 318 317 317 319 321 321
302 302 303 303 302 302 303 304 307 311 315 319 320 320 321 321 321 320 320 320 320 319 319 319 319 318 318 318 318 318 319 319 319 317 317 317 317 317 318 319 320 321
301 301 302 302 302 302 302 302 302 303 306 309 313 316 318 320 320 320 320 320 319 319 319 319 319 319 318 318 318 318 318 318 316 314 314 316 316 317 317 318 319 320
Wind_Speed
22 22 21 20 20 20 19 19 19 18 16 15 14 13 13 13 15 16 13 12 12 10 9 8 9 9 8 9 9 10 12 12 13 13 12 12 11 9 8 6 5 5
24 24 23 23 22 20 19 19 18 17 16 15 14 14 14 13 14 14 13 13 12 10 9 9 8 8 9 10 10 11 12 12 12 13 12 13 13 11 10 8 7 6
25 25 25 24 23 21 20 19 18 17 16 16 15 13 13 13 12 13 13 13 12 11 10 8 8 8 9 12 13 12 12 11 11 11 11 13 13 13 12 10 9 9
25 25 25 24 23 21 21 20 19 17 17 16 15 13 13 13 12 11 12 12 12 11 10 8 9 9 11 13 14 13 12 11 10 10 11 12 13 13 14 12 10 9
25 25 25 24 22 21 21 20 18 17 16 15 14 13 12 12 12 12 12 12 12 11 10 10 10 10 11 13 14 13 12 11 10 11 12 13 13 13 14 14 12 10
24 24 23 22 21 22 21 19 17 15 14 13 13 13 12 12 12 13 13 12 12 11 10 10 10 10 10 12 13 13 12 11 11 11 12 12 12 12 12 13 14 12
22 22 22 21 21 21 20 18 16 14 13 13 13 13 12 12 12 13 13 13 12 10 10 10 10 9 9 11 13 13 12 11 10 9 9 10 10 11 10 10 12 13
23 22 22 22 22 20 20 20 18 16 15 14 14 13 12 12 13 14 13 12 12 11 11 11 10 10 10 11 13 13 12 11 9 8 8 9 9 9 9 8 9 11
24 24 24 23 22 21 22 21 20 19 17 15 15 13 12 12 14 14 13 12 13 12 12 12 12 11 11 11 12 13 12 10 8 7 7 7 7 7 6 6 6 8
24 25 24 23 22 22 22 22 22 21 19 16 14 14 13 13 13 14 14 14 14 14 13 13 13 12 12 11 11 11 10 9 8 8 7 6 5 5 4 3 4 5
26 25 24 23 24 23 21 22 23 21 18 16 15 16 16 14 13 15 16 15 15 15 14 14 14 13 12 12 11 9 9 10 10 9 8 6 5 5 3 2 2 3
27 25 23 23 23 21 19 21 20 18 17 18 18 19 19 17 16 18 18 16 16 16 15 15 15 14 14 13 12 11 10 12 12 11 9 8 7 6 5 4 3 3
26 25 24 22 19 16 16 18 18 18 21 21 20 21 21 19 18 19 19 18 18 19 18 16 16 16 16 16 15 13 12 13 13 12 10 9 8 8 7 7 6 5
29 29 28 25 22 19 19 20 22 24 24 23 22 22 22 20 19 19 20 19 20 21 20 19 18 17 17 18 18 15 14 14 14 13 12 11 10 10 10 9 9 8
31 31 30 28 28 27 26 25 27 28 26 25 24 23 22 22 21 21 21 21 21 22 21 21 20 19 18 19 19 17 16 15 15 15 14 13 13 13 12 12 12 11
30 30 29 29 31 31 30 29 30 29 28 27 25 25 24 23 23 23 23 23 23 23 23 23 23 21 20 20 20 18 17 17 17 17 16 14 14 15 15 15 14 13
26 26 28 29 31 31 30 30 30 29 27 26 25 25 25 24 24 25 24 24 24 24 25 24 23 22 21 21 21 19 19 18 18 18 17 16 16 16 16 16 16 15
19 21 23 24 25 26 27 27 26 25 25 26 26 26 24 24 26 26 25 25 24 24 24 24 22 22 21 21 21 20 20 19 19 19 18 17 17 17 17 17 17 17
14 15 17 19 20 20 21 22 23 23 25 26 26 25 24 24 26 26 25 25 25 25 24 23 22 21 21 21 21 21 20 20 20 20 19 18 18 17 17 17 18 18
8 10 11 12 10 10 12 14 15 17 21 24 24 24 23 23 24 26 25 26 27 27 26 24 23 21 20 20 20 20 19 19 19 18 18 18 17 16 16 17 18 19
5 4 5 4 3 5 8 7 5 6 11 16 18 19 21 22 24 25 26 26 26 26 25 25 23 21 20 20 20 20 18 18 18 18 18 18 16 15 15 15 17 19
15 12 11 9 7 4 5 4 4 6 9 12 12 12 15 19 21 22 23 22 20 19 21 22 21 19 20 21 21 20 18 18 19 19 19 18 15 14 14 14 16 18
24 22 21 19 17 13 7 3 2 5 8 11 12 12 13 16 18 20 21 19 17 19 22 22 19 19 20 21 20 19 18 19 20 20 20 18 15 14 14 15 17 18
27 26 26 25 24 22 18 13 7 2 3 7 10 11 11 13 17 19 20 18 17 19 21 21 19 19 20 20 19 19 19 20 20 20 19 17 15 15 15 16 17 17
24 24 24 25 25 24 23 21 17 12 5 1 5 8 9 10 12 15 16 16 16 18 19 19 19 20 20 20 20 20 20 20 20 19 18 18 17 16 17 18 18 18
22 22 22 22 22 21 21 21 20 18 15 11 6 4 5 8 9 11 13 14 15 16 17 17 18 18 18 19 19 19 19 19 18 18 18 18 18 18 18 19 19 20
Wind_Direction
184 181 180 180 176 172 169 166 164 164 164 163 163 164 163 161 164 166 166 165 164 163 166 173 173 171 170 163 157 154 146 137 128 127 129 130 130 130 132 138 155 171
185 183 183 183 180 177 174 171 169 169 171 169 165 164 163 162 165 170 171 170 170 169 171 180 186 188 189 180 172 162 152 144 135 132 130 127 125 125 126 130 138 147
185 185 186 186 184 179 175 173 173 175 177 175 170 166 164 163 164 169 173 174 175 173 172 179 186 185 180 176 174 167 158 153 147 144 140 132 127 125 127 131 134 131
186 188 189 189 186 182 177 175 174 176 178 177 173 169 168 169 171 172 173 176 178 176 174 177 177 171 165 166 167 165 161 161 160 161 156 144 135 131 128 131 135 130
188 189 190 189 187 182 180 178 176 177 180 179 175 174 175 177 180 179 175 176 178 176 175 175 171 166 164 164 164 163 166 167 163 162 159 151 145 140 132 130 133 134
188 188 189 189 186 182 182 180 180 183 184 182 178 177 181 184 185 184 179 175 174 175 178 179 177 175 173 170 167 164 165 161 155 152 151 149 149 149 141 133 131 131
183 185 186 187 185 183 184 184 184 186 184 183 182 184 189 190 187 185 182 179 177 180 186 187 185 182 179 178 174 169 165 161 158 156 151 146 145 146 143 137 133 131
181 183 184 185 183 183 187 188 186 184 181 182 185 188 193 192 184 180 182 186 185 185 185 184 183 179 177 179 178 175 171 167 167 169 163 156 149 143 137 134 137 135
179 181 182 183 183 185 190 189 186 184 181 181 185 186 188 187 182 180 186 194 192 185 180 178 181 181 179 179 180 178 177 176 176 177 173 170 165 153 140 132 132 132
174 178 180 183 185 186 188 189 189 186 181 179 184 186 182 182 184 186 192 199 199 194 189 186 188 188 187 186 186 189 191 193 193 191 191 191 187 177 156 137 137 136
171 172 173 178 181 181 185 189 188 183 180 183 189 187 183 185 189 192 195 202 206 205 200 195 193 193 194 195 199 209 215 212 205 201 207 216 217 212 199 185 181 159
166 166 166 168 171 173 178 183 185 185 187 191 194 191 190 192 192 193 199 204 207 208 207 203 201 203 206 206 209 216 220 215 209 208 216 224 226 223 219 219 220 199
163 166 162 157 158 166 175 181 189 197 196 194 196 196 197 198 196 196 201 205 207 209 210 211 211 213 213 211 214 219 219 213 210 213 221 224 225 222 221 223 220 216
166 172 172 169 172 183 191 193 196 199 197 195 197 199 201 203 203 202 204 207 209 209 210 214 216 216 213 211 215 220 219 215 214 219 223 223 224 223 221 223 223 221
165 172 176 180 186 191 195 197 197 198 197 195 196 199 202 205 208 209 210 210 210 210 212 216 218 218 215 213 217 220 220 220 222 224 227 228 229 228 226 226 228 229
169 173 177 181 187 191 193 194 195 196 197 198 200 201 203 206 208 212 217 218 218 218 219 220 221 222 219 217 220 222 222 225 227 229 231 235 237 237 237 236 234 234
176 178 181 183 187 191 193 193 194 197 201 207 209 206 207 209 211 215 220 223 224 223 222 222 222 222 220 218 220 223 226 230 233 234 236 239 242 243 245 243 239 236
184 182 181 181 185 192 195 196 199 203 207 212 213 212 211 213 214 218 223 225 224 222 221 221 222 222 221 222 224 226 229 234 237 239 240 243 244 244 246 246 242 235
192 190 184 181 185 191 195 200 205 209 211 212 213 214 215 216 218 223 227 227 224 222 222 222 225 225 225 228 230 229 231 236 239 242 244 244 244 245 247 245 239 229
185 194 194 192 190 184 187 195 201 206 211 213 215 217 217 219 223 226 229 230 227 226 226 226 228 229 230 231 232 232 234 237 239 240 242 243 246 248 247 241 232 222
116 141 162 174 174 182 198 203 187 189 207 213 216 218 217 220 227 228 228 229 227 225 225 226 228 229 230 231 232 233 234 236 238 240 243 247 249 246 240 233 223 216
73 76 78 77 83 124 198 216 188 192 213 218 219 220 216 217 226 231 229 228 227 229 231 231 231 231 231 231 230 231 233 236 239 242 245 248 244 236 230 221 213 210
64 68 69 70 70 70 69 76 152 193 215 220 224 229 220 211 217 228 233 234 235 236 237 237 237 237 236 234 232 232 235 237 237 238 241 240 231 225 222 215 210 209
59 61 63 64 63 62 61 61 65 93 227 232 234 239 235 222 219 226 234 236 235 236 239 241 241 239 237 237 238 238 238 235 232 233 234 230 223 220 218 214 211 210
52 54 55 56 55 54 56 56 57 60 60 295 259 260 259 250 240 238 241 243 242 242 244 246 247 244 242 242 241 238 234 229 226 226 227 224 221 219 214 211 211 208
45 47 47 47 46 46 46 47 47 49 52 51 36 342 289 276 272 266 261 257 255 253 252 251 251 252 251 247 239 231 226 221 219 221 222 220 217 215 211 207 206 206